Change the Weather History Date:

Sunday, October 30, 2011

  Actual Average (KEAU) Record (KEAU)
Temperature  
Mean Temperature 39 °F 42 °F  
Max Temperature 41 °F 51 °F 80 °F (1950)
Min Temperature 37 °F 32 °F 7 °F (1925)
Degree Days  
Heating Degree Days 26 23  
Month to date heating degree days 528  
Since 1 July heating degree days 761  
Cooling Degree Days 0 0  
Month to date cooling degree days 0  
Year to date cooling degree days 575  
Moisture  
Dew Point 32 °F    
Average Humidity 78    
Maximum Humidity 93    
Minimum Humidity 57    
Precipitation  
Precipitation 0.05 in 0.05 in 2.40 in (1896)
Month to date precipitation 2.28  
Year to date precipitation 28.08  
Snow  
Snow 0.00 in 0.10 in 0.40 in (1955)
Month to date snowfall 0.4  
Since 1 July snowfall 0.4  
Since 1 September snowfall 0.4  
Snow Depth -    
Sea Level Pressure  
Sea Level Pressure 29.87 in    
Wind  
Wind Speed 5 mph (ENE)    
Max Wind Speed 16 mph    
Max Gust Speed 21 mph    
Visibility 9 miles    
Events Rain    
T = Trace of Precipitation, MM = Missing Value Source: NWS Daily Summary

Daily Weather History Graph

Daily Weather History Graph

Search for Another Location

Airport or City:

Trip Planner

Search our weather history database for the weather conditions in past years. The results will help you decide how hot, cold, wet, or windy it might be!

Date:

Astronomy

Oct. 30, 2011 Rise Set
Actual Time 7:42 AM CDT 5:58 PM CDT
Civil Twilight 7:12 AM CDT 6:29 PM CDT
Nautical Twilight 6:37 AM CDT 7:03 PM CDT
Astronomical Twilight 6:03 AM CDT 7:37 PM CDT
Moon 12:09 PM CDT (10/30) 9:20 PM CDT (10/30)
Length of Visible Light 11h 17m
Length of Day
10h 16m
Waxing Crescent, 20% of the Moon is Illuminated
Oct 30
Waxing Crescent
Nov 2
First Quarter
Nov 10
Full
Nov 18
Last Quarter
Nov 25
New

Hourly Weather History & Observations

Time (CDT) Temp. Windchill Dew Point Humidity Pressure Visibility Wind Dir Wind Speed Gust Speed Precip Events Conditions
12:15 AM 37.4 °F 33.8 °F 26.6 °F 65% 29.98 in 10.0 mi East 4.6 mph - N/A   Overcast
12:35 AM 37.4 °F - 26.6 °F 65% 29.97 in 10.0 mi Calm Calm - N/A   Overcast
12:55 AM 37.4 °F 33.8 °F 26.6 °F 65% 29.96 in 10.0 mi ENE 4.6 mph - N/A   Overcast
1:15 AM 37.4 °F - 26.6 °F 65% 29.95 in 10.0 mi Calm Calm - N/A   Overcast
1:35 AM 37.4 °F 33.8 °F 26.6 °F 65% 29.95 in 10.0 mi East 4.6 mph - N/A   Overcast
1:55 AM 37.4 °F 34.9 °F 28.4 °F 70% 29.95 in 10.0 mi East 3.5 mph - N/A   Overcast
2:15 AM 37.4 °F 33.8 °F 26.6 °F 65% 29.94 in 10.0 mi East 4.6 mph - N/A   Overcast
2:35 AM 39.2 °F 35.0 °F 26.6 °F 61% 29.94 in 10.0 mi ESE 5.8 mph - N/A   Overcast
2:55 AM 39.2 °F 35.9 °F 26.6 °F 61% 29.93 in 10.0 mi ESE 4.6 mph - N/A   Overcast
3:15 AM 41.0 °F 35.8 °F 26.6 °F 57% 29.92 in 10.0 mi ESE 8.1 mph - N/A   Overcast
3:35 AM 41.0 °F 36.4 °F 26.6 °F 57% 29.91 in 10.0 mi East 6.9 mph - N/A   Overcast
3:55 AM 41.0 °F 35.8 °F 26.6 °F 57% 29.90 in 10.0 mi East 8.1 mph - N/A   Mostly Cloudy
4:15 AM 41.0 °F 38.0 °F 26.6 °F 57% 29.90 in 10.0 mi East 4.6 mph - N/A   Mostly Cloudy
4:35 AM 41.0 °F 38.0 °F 26.6 °F 57% 29.89 in 10.0 mi ESE 4.6 mph - N/A   Overcast
4:55 AM 41.0 °F 38.0 °F 26.6 °F 57% 29.89 in 10.0 mi SE 4.6 mph - N/A   Overcast
5:15 AM 41.0 °F 37.1 °F 28.4 °F 61% 29.89 in 10.0 mi East 5.8 mph - N/A   Drizzle
5:35 AM 39.2 °F 33.6 °F 30.2 °F 70% 29.88 in 10.0 mi ENE 8.1 mph - N/A   Light Drizzle
5:55 AM 39.2 °F 33.0 °F 30.2 °F 70% 29.87 in 10.0 mi East 9.2 mph - N/A   Overcast
6:15 AM 39.2 °F 33.0 °F 30.2 °F 70% 29.87 in 10.0 mi East 9.2 mph - N/A   Overcast
6:35 AM 39.2 °F 33.6 °F 30.2 °F 70% 29.86 in 10.0 mi ENE 8.1 mph - N/A   Overcast
7:15 AM 39.2 °F 34.2 °F 30.2 °F 70% 29.86 in 10.0 mi East 6.9 mph - N/A   Overcast
7:35 AM 41.0 °F 36.4 °F 30.2 °F 65% 29.86 in 10.0 mi East 6.9 mph - N/A   Overcast
7:55 AM 41.0 °F 38.0 °F 30.2 °F 65% 29.86 in 10.0 mi East 4.6 mph - N/A   Overcast
8:15 AM 41.0 °F 36.4 °F 30.2 °F 65% 29.85 in 10.0 mi East 6.9 mph - N/A   Overcast
8:35 AM 41.0 °F 35.2 °F 30.2 °F 65% 29.84 in 10.0 mi East 9.2 mph - N/A   Overcast
8:55 AM 41.0 °F 34.7 °F 30.2 °F 65% 29.84 in 10.0 mi East 10.4 mph 16.1 mph N/A   Overcast
9:15 AM 41.0 °F 34.3 °F 32.0 °F 70% 29.84 in 10.0 mi ESE 11.5 mph - N/A   Overcast
9:35 AM 41.0 °F 32.8 °F 32.0 °F 70% 29.84 in 10.0 mi ESE 16.1 mph 20.7 mph N/A   Overcast
9:55 AM 41.0 °F 33.9 °F 32.0 °F 70% 29.84 in 10.0 mi ESE 12.7 mph - N/A   Overcast
10:15 AM 41.0 °F 34.3 °F 32.0 °F 70% 29.84 in 10.0 mi ESE 11.5 mph - N/A   Overcast
10:35 AM 39.2 °F 32.0 °F 32.0 °F 75% 29.84 in 10.0 mi ESE 11.5 mph - N/A   Overcast
10:55 AM 39.2 °F 34.2 °F 33.8 °F 81% 29.84 in 10.0 mi East 6.9 mph - N/A   Light Drizzle
11:15 AM 37.4 °F 31.4 °F 33.8 °F 87% 29.84 in 7.0 mi East 8.1 mph - N/A   Light Drizzle
11:35 AM 37.4 °F 32.1 °F 35.6 °F 93% 29.84 in 10.0 mi East 6.9 mph - N/A   Overcast
11:55 AM 37.4 °F 31.4 °F 35.6 °F 93% 29.83 in 10.0 mi East 8.1 mph - N/A   Overcast
12:15 PM 37.4 °F 32.8 °F 35.6 °F 93% 29.83 in 10.0 mi East 5.8 mph - N/A   Overcast
12:35 PM 37.4 °F 32.1 °F 35.6 °F 93% 29.83 in 10.0 mi East 6.9 mph - N/A   Overcast
12:55 PM 39.2 °F 35.0 °F 35.6 °F 87% 29.82 in 10.0 mi East 5.8 mph - N/A   Overcast
1:35 PM 39.2 °F 33.6 °F 35.6 °F 87% 29.81 in 10.0 mi East 8.1 mph - N/A   Overcast
1:55 PM 39.2 °F 34.2 °F 35.6 °F 87% 29.81 in 10.0 mi East 6.9 mph - N/A   Overcast
2:15 PM 41.0 °F 38.0 °F 35.6 °F 81% 29.81 in 10.0 mi ESE 4.6 mph - N/A   Overcast
2:35 PM 41.0 °F 36.4 °F 35.6 °F 81% 29.81 in 10.0 mi East 6.9 mph - N/A   Drizzle
2:55 PM 41.0 °F 39.0 °F 35.6 °F 81% 29.81 in 10.0 mi East 3.5 mph - N/A Rain Light Rain
3:15 PM 41.0 °F 39.0 °F 35.6 °F 81% 29.82 in 7.0 mi East 3.5 mph - N/A Rain Light Rain
3:35 PM 41.0 °F - 37.4 °F 87% 29.82 in 7.0 mi Calm Calm - 0.01 in Rain Rain
3:55 PM 41.0 °F - 37.4 °F 87% 29.82 in 7.0 mi Calm Calm - 0.01 in Rain Rain
4:15 PM 41.0 °F - 37.4 °F 87% 29.83 in 7.0 mi Calm Calm - N/A   Drizzle
4:35 PM 41.0 °F 39.0 °F 37.4 °F 87% 29.83 in 7.0 mi NNE 3.5 mph - 0.01 in Rain Rain
4:55 PM 41.0 °F 39.0 °F 37.4 °F 87% 29.83 in 7.0 mi North 3.5 mph - 0.01 in Rain Rain
5:15 PM 41.0 °F 38.0 °F 37.4 °F 87% 29.84 in 7.0 mi NNW 4.6 mph - N/A   Drizzle
5:35 PM 39.2 °F 35.9 °F 37.4 °F 93% 29.84 in 7.0 mi NNW 4.6 mph - N/A   Drizzle
5:55 PM 39.2 °F 35.9 °F 37.4 °F 93% 29.85 in 7.0 mi NW 4.6 mph - 0.02 in Rain Rain
6:15 PM 39.2 °F 35.9 °F 37.4 °F 93% 29.86 in 7.0 mi WNW 4.6 mph - N/A   Drizzle
6:35 PM 37.4 °F 32.8 °F 35.6 °F 93% 29.87 in 10.0 mi NW 5.8 mph - N/A   Light Drizzle
6:55 PM 37.4 °F 33.8 °F 35.6 °F 93% 29.88 in 10.0 mi NW 4.6 mph - N/A   Overcast
7:15 PM 37.4 °F 32.8 °F 35.6 °F 93% 29.88 in 10.0 mi NNW 5.8 mph - N/A   Overcast
7:35 PM 37.4 °F 31.4 °F 35.6 °F 93% 29.88 in 10.0 mi North 8.1 mph - N/A   Overcast
7:55 PM 37.4 °F 33.8 °F 35.6 °F 93% 29.88 in 7.0 mi NNW 4.6 mph - N/A   Light Drizzle
8:15 PM 37.4 °F 33.8 °F 35.6 °F 93% 29.89 in 10.0 mi WNW 4.6 mph - N/A   Light Drizzle
8:35 PM 37.4 °F 34.9 °F 35.6 °F 93% 29.89 in 7.0 mi West 3.5 mph - 0.01 in   Drizzle
8:55 PM 37.4 °F 33.8 °F 35.6 °F 93% 29.89 in 10.0 mi West 4.6 mph - 0.01 in   Light Drizzle
9:15 PM 37.4 °F 33.8 °F 35.6 °F 93% 29.90 in 7.0 mi West 4.6 mph - N/A Rain Light Rain
9:35 PM 37.4 °F 34.9 °F 35.6 °F 93% 29.90 in 7.0 mi West 3.5 mph - N/A   Light Drizzle
9:55 PM 37.4 °F 33.8 °F 35.6 °F 93% 29.91 in 7.0 mi WNW 4.6 mph - N/A   Overcast
10:15 PM 37.4 °F 33.8 °F 35.6 °F 93% 29.91 in 7.0 mi WNW 4.6 mph - N/A   Overcast
10:35 PM 37.4 °F 33.8 °F 35.6 °F 93% 29.91 in 10.0 mi WNW 4.6 mph - N/A   Overcast
10:55 PM 37.4 °F 33.8 °F 35.6 °F 93% 29.91 in 10.0 mi WNW 4.6 mph - N/A   Overcast
11:15 PM 37.4 °F 33.8 °F 35.6 °F 93% 29.91 in 10.0 mi NW 4.6 mph - N/A   Overcast
11:35 PM 37.4 °F 32.8 °F 35.6 °F 93% 29.91 in 10.0 mi NW 5.8 mph - N/A   Overcast
11:55 PM 35.6 °F 30.7 °F 35.6 °F 100% 29.91 in 10.0 mi NW 5.8 mph - N/A   Mostly Cloudy